RH
63 72 75 58 54 46 43 45 50 36 30 35 38 37 32 28 27 27 26 27 26 27 24 21 19 20 19 19 21 27 27 28 29 35 57 75 75 73 70 67 73 76 80 80
62 76 48 38 38 44 43 51 52 40 31 36 40 40 33 29 27 25 24 24 23 23 24 22 20 22 22 23 23 22 26 31 32 34 44 62 67 74 73 77 77 83 82 75
66 52 44 48 47 53 52 55 50 47 40 39 43 46 37 27 27 26 25 23 22 23 22 21 21 20 21 24 25 26 26 28 35 37 47 61 72 81 87 86 85 83 72 66
54 44 44 53 55 49 58 42 43 47 54 68 49 81 41 30 27 24 25 26 26 23 22 22 21 20 18 22 24 26 28 29 31 39 54 61 79 92 90 81 75 68 65 64
66 53 58 58 51 45 51 46 48 51 62 70 58 77 55 26 26 19 20 23 23 22 22 22 23 20 16 17 25 25 27 31 32 42 56 69 79 85 88 80 74 71 72 62
52 42 49 50 44 43 49 52 56 58 68 90 66 65 56 28 22 19 17 18 18 18 17 18 18 18 20 19 17 22 30 33 34 50 61 74 77 82 84 76 72 65 60 46
60 60 48 46 54 50 55 59 91 98 99 91 35 57 48 26 21 21 19 16 17 15 16 20 24 28 24 20 22 21 28 37 40 57 70 73 76 74 79 74 70 57 50 36
79 82 61 50 56 67 69 71 94 85 86 68 45 55 35 22 18 19 18 18 19 20 21 21 30 37 33 29 23 25 31 44 52 66 71 71 73 73 76 76 70 56 47 40
73 74 49 51 50 52 68 86 56 76 61 84 52 28 21 17 18 18 19 21 24 24 23 27 34 35 31 31 28 26 39 49 60 68 65 69 70 70 74 73 61 53 46 38
56 85 53 56 52 52 58 49 84 94 94 85 53 40 36 26 27 24 23 22 23 23 26 32 41 40 32 28 30 30 46 52 61 63 68 67 68 68 67 56 55 49 38 33
48 60 69 64 76 74 72 78 68 67 80 90 86 52 29 32 32 34 32 29 27 27 30 39 47 44 37 30 35 36 53 56 60 68 64 61 57 55 48 45 42 39 33 31
50 70 94 79 54 53 55 62 66 89 82 85 97 71 32 33 29 30 34 30 30 29 30 48 48 51 45 39 43 50 56 62 61 51 49 45 43 39 37 36 35 34 33 31
57 84 80 71 63 49 62 58 58 64 80 85 90 67 28 30 35 35 35 36 32 30 31 54 52 54 60 65 62 61 63 54 48 46 42 38 38 36 35 35 35 33 31 28
51 70 90 95 74 71 91 70 64 80 98 74 75 66 51 45 51 54 53 47 40 38 42 62 61 59 72 75 65 59 51 48 44 40 38 37 36 34 34 32 31 28 28 28
61 90 77 76 66 60 67 73 76 88 84 95 67 69 63 70 65 60 57 64 64 43 69 66 65 64 71 70 59 52 46 41 38 37 37 36 34 33 33 32 32 31 29 28
64 92 82 92 65 62 77 67 66 66 70 95 94 95 74 58 47 56 67 76 80 66 74 68 63 66 56 49 49 45 41 38 36 37 38 34 32 33 33 31 30 30 31 29
84 90 97 86 63 60 76 65 63 83 84 90 97 78 63 67 57 80 84 82 78 70 75 78 69 52 46 44 42 43 39 41 42 40 38 37 35 35 35 32 32 32 32 32
74 84 88 95 72 89 48 54 62 72 77 76 80 67 61 61 77 88 90 84 73 70 73 69 52 46 42 40 39 41 42 45 46 44 40 38 37 38 36 35 34 34 34 33
69 92 100 85 66 58 52 55 57 70 84 76 79 80 70 74 86 90 81 60 63 59 54 50 46 43 41 43 47 50 50 53 49 52 46 39 42 40 37 35 35 34 32 32
73 87 100 95 91 81 49 54 53 70 98 68 84 83 76 76 92 98 80 58 55 49 48 53 56 54 60 56 53 56 54 54 56 50 46 49 53 43 39 34 34 35 36 34
98 100 99 95 93 70 41 61 70 92 79 64 82 84 76 90 91 85 73 80 83 87 80 76 80 88 92 87 84 89 92 91 90 85 81 71 44 35 36 38 37 35 34 36
82 92 92 92 96 92 43 52 66 62 62 67 84 78 77 80 78 65 57 79 83 86 88 95 99 99 100 100 96 95 86 78 61 43 35 35 43 50 39 34 34 36 36 34
76 69 74 78 72 46 46 52 49 55 60 58 62 85 81 93 87 73 66 70 64 60 48 50 54 51 48 42 37 38 39 35 36 36 39 45 39 37 36 36 38 37 35 33
51 51 66 68 52 52 55 54 60 63 65 61 63 78 92 90 88 77 86 85 84 74 77 71 64 62 62 46 43 44 39 38 37 38 37 36 35 36 36 35 37 36 36 37
63 55 61 63 55 52 58 61 60 64 60 59 59 66 82 81 70 68 78 62 66 68 68 48 46 43 41 40 40 38 36 35 36 37 37 39 39 38 38 37 35 34 41 35
60 66 70 65 55 56 65 62 58 62 63 59 62 70 78 78 84 72 70 51 45 46 41 41 40 39 39 38 36 35 34 34 37 40 39 38 38 37 37 35 33 35 35 33
Wind_Speed
9 5 9 12 12 14 11 6 11 5 7 8 10 14 14 13 14 17 15 14 16 16 11 18 21 21 27 32 29 34 34 32 31 27 28 27 27 23 28 27 28 28 27 23
3 8 10 8 5 7 9 7 10 9 8 7 10 19 17 21 18 19 19 18 16 14 10 11 19 22 27 25 26 27 25 34 36 34 29 25 25 27 32 29 27 27 26 26
6 1 11 11 4 4 6 6 8 10 11 10 12 16 11 10 19 22 21 20 13 13 14 13 11 21 26 30 28 27 27 29 34 32 29 24 25 28 27 30 28 28 29 27
7 6 5 6 9 6 6 2 5 6 6 4 11 7 6 9 10 8 10 10 13 16 13 10 10 11 24 28 33 31 30 31 26 33 31 34 29 23 28 35 33 27 26 24
5 3 6 5 6 6 2 5 4 5 5 7 4 3 7 4 7 6 8 11 10 9 9 9 10 15 22 18 24 37 33 33 32 37 32 36 29 23 30 30 30 25 23 25
5 3 3 5 2 3 6 2 4 4 2 5 10 9 5 3 4 6 9 6 7 6 5 5 6 6 9 17 24 17 31 30 33 34 32 36 35 33 33 31 32 30 27 25
5 7 3 3 7 4 3 3 1 2 2 6 3 9 11 15 12 15 8 2 5 4 0 4 6 5 13 19 20 23 19 29 28 30 27 31 31 34 36 36 36 35 30 27
7 4 14 10 8 5 9 4 2 4 2 4 7 7 6 12 9 3 4 4 3 5 2 2 4 6 16 19 20 22 20 25 27 29 28 27 31 31 33 35 35 32 30 30
7 2 9 12 6 8 5 7 1 3 4 2 5 6 9 14 10 9 3 6 7 9 5 1 6 9 20 23 22 21 21 24 26 30 26 27 33 31 33 32 32 31 30 30
5 3 2 7 6 8 7 6 3 1 2 5 5 7 7 4 6 7 6 5 7 6 4 1 4 8 22 25 19 25 25 25 28 28 28 31 31 30 32 31 32 31 30 28
4 2 2 5 7 9 7 5 2 1 3 3 4 5 4 5 7 7 9 9 8 3 4 2 5 13 25 17 14 19 26 24 28 28 31 35 33 33 33 31 33 33 32 29
6 3 3 8 8 12 11 6 8 3 4 4 2 7 16 9 2 2 5 7 10 6 3 4 2 10 20 10 8 21 23 26 28 34 35 34 34 33 32 33 34 31 30 25
7 3 2 3 2 6 4 6 9 10 4 12 6 6 3 14 20 20 21 11 7 7 4 5 1 6 7 4 9 18 23 28 33 34 34 33 31 31 31 34 32 32 28 25
10 4 4 2 4 2 3 6 7 6 5 13 19 25 25 22 24 22 19 17 10 7 3 5 3 5 3 12 18 22 27 29 31 33 32 30 30 32 33 32 30 31 27 24
4 3 5 10 13 9 10 10 13 15 20 12 23 23 26 23 22 16 8 12 11 17 8 5 4 3 6 11 18 22 27 28 31 31 29 28 31 33 33 31 29 27 25 22
3 2 4 5 12 12 12 16 16 19 19 16 19 24 16 20 6 7 6 3 8 9 4 4 1 6 8 14 17 21 25 28 30 29 29 31 32 33 32 32 30 26 23 20
6 3 1 3 7 9 8 9 9 4 7 8 9 17 14 16 13 7 8 9 12 12 6 7 7 10 12 15 19 20 24 26 28 28 29 30 31 31 30 30 28 23 20 17
5 5 2 4 8 4 2 6 6 7 8 8 13 14 11 8 4 9 10 9 7 5 9 10 10 13 16 19 21 22 23 25 27 26 28 29 29 28 28 27 25 21 17 14
5 2 2 2 5 9 3 4 1 1 3 4 8 12 12 1 2 7 13 11 8 11 10 11 17 18 19 20 22 25 25 27 26 26 27 27 26 24 25 24 21 18 15 11
6 5 0 3 3 3 2 4 4 7 2 4 1 8 11 7 4 3 8 11 12 11 16 20 22 22 24 22 24 25 26 27 25 25 26 24 24 24 24 21 18 14 11 8
4 2 6 4 3 6 7 7 6 1 4 3 1 5 7 4 4 5 12 11 11 14 18 21 23 23 24 27 30 26 22 21 23 29 29 24 22 23 20 18 14 11 8 6
6 6 3 3 3 7 1 3 0 2 2 3 3 1 4 6 6 9 10 12 11 12 16 21 21 21 24 26 28 23 21 21 24 29 29 27 22 19 17 15 11 9 6 5
5 6 5 6 6 7 4 6 2 3 2 3 2 4 5 7 4 7 7 9 9 12 15 18 20 21 21 24 25 26 24 28 29 29 26 22 20 17 13 12 9 7 5 4
4 8 3 4 5 9 4 6 6 5 4 4 2 3 5 9 8 9 9 8 8 12 16 19 21 21 20 25 25 26 27 27 27 25 23 20 18 14 11 10 8 5 4 4
1 1 4 6 9 2 6 5 4 4 5 3 1 3 6 10 9 9 8 8 9 15 18 19 18 19 21 22 23 24 26 26 25 23 20 18 13 11 10 7 5 4 4 6
4 5 4 3 3 1 2 3 4 5 3 3 3 5 7 9 10 10 7 9 12 13 21 20 19 21 21 24 25 23 21 22 23 21 16 13 12 10 8 6 5 5 6 8
Wind_Direction
188 207 200 197 215 250 291 297 312 328 339 322 276 273 268 263 255 252 244 240 244 250 253 254 239 244 236 231 231 211 212 201 203 210 193 184 196 192 188 190 187 185 189 189
149 241 233 243 235 254 255 283 284 287 278 308 292 276 273 262 251 244 242 244 240 241 246 251 248 232 241 245 240 234 219 196 197 202 205 196 191 175 177 181 183 176 181 187
186 226 221 254 226 235 251 257 281 300 325 307 290 282 243 260 237 239 241 246 246 234 230 236 244 236 238 229 236 240 228 216 197 195 198 187 177 162 156 162 163 173 178 179
226 193 144 212 230 205 252 350 300 319 319 256 26 289 268 282 276 232 228 221 226 230 234 230 237 245 231 230 225 232 233 224 219 194 191 187 171 160 169 165 163 163 177 177
214 203 172 221 202 189 189 46 356 318 325 342 234 227 273 297 268 254 226 209 216 212 204 213 221 231 253 261 230 221 229 221 217 197 192 182 169 169 168 167 164 170 170 172
224 102 242 195 166 239 70 165 239 268 242 254 209 191 279 218 146 40 348 167 193 205 238 250 249 250 260 254 249 251 226 213 211 195 191 179 169 165 164 164 163 167 166 163
240 213 164 280 175 165 159 203 231 215 209 239 249 200 250 294 290 302 255 241 164 171 327 336 321 306 260 242 246 239 241 207 198 188 181 174 174 178 172 166 163 158 158 161
197 205 192 179 216 159 191 193 213 251 260 323 323 240 254 231 262 200 231 218 271 308 304 269 15 351 317 275 230 235 220 196 184 175 171 172 173 176 171 170 164 159 160 162
175 225 158 155 187 182 165 211 218 312 260 261 235 297 291 261 262 248 216 189 248 237 245 77 5 335 303 282 224 213 215 187 179 167 171 166 169 170 162 161 159 156 157 154
10 105 216 151 180 213 214 170 92 45 250 267 258 257 246 55 21 16 2 315 292 234 193 41 22 319 300 299 208 206 198 186 171 169 158 144 154 161 159 151 151 151 149 154
177 194 126 99 212 197 204 229 233 47 209 236 302 248 97 67 4 14 350 338 309 287 322 9 12 316 299 294 198 195 180 171 165 148 138 144 146 146 144 141 145 148 152 154
179 125 190 210 246 210 203 205 195 158 244 245 291 266 262 274 31 104 304 294 287 239 227 110 15 304 293 282 223 169 171 151 132 129 136 139 140 139 136 136 142 146 146 146
154 174 193 152 360 204 207 231 203 226 323 243 270 263 223 308 315 303 300 286 248 258 277 102 100 292 296 352 116 138 127 115 120 129 131 133 135 137 136 137 140 139 141 142
158 156 217 218 80 116 210 235 230 203 248 253 243 271 284 292 305 306 298 287 286 287 168 98 22 270 51 87 100 108 108 117 123 127 129 135 138 134 131 132 133 139 142 140
140 220 239 262 270 270 252 238 222 222 239 246 270 278 286 294 292 299 326 4 358 313 102 137 208 170 115 102 107 111 112 120 127 128 134 133 130 126 126 127 129 135 136 140
137 258 358 279 253 256 259 256 251 248 251 252 266 275 276 269 300 294 299 299 286 287 98 147 274 109 85 109 110 113 118 127 131 132 131 129 124 123 124 128 133 136 139 136
167 200 242 273 316 308 269 245 226 201 227 250 280 286 300 305 302 18 338 308 275 252 195 158 118 105 94 103 106 109 121 129 128 128 125 121 121 119 122 131 134 134 129 129
174 191 186 273 288 219 42 129 164 204 234 251 288 313 314 305 66 21 346 328 26 31 128 121 118 110 114 117 115 116 118 120 118 116 114 114 115 115 126 130 128 126 127 123
220 129 281 275 300 286 133 137 355 237 329 250 299 319 326 308 55 36 1 36 57 70 71 77 93 102 106 111 117 117 114 107 106 103 105 109 114 118 125 123 122 125 126 124
208 151 246 7 327 283 94 133 92 106 264 221 261 321 334 341 6 37 4 57 60 74 93 95 94 102 103 105 112 107 104 107 106 108 109 112 125 128 125 123 120 125 125 117
156 175 223 215 260 282 266 133 121 24 276 3 77 326 8 59 54 97 90 76 85 82 89 105 110 107 108 105 104 99 102 101 114 118 120 126 132 128 123 116 121 116 106 93
168 169 187 169 234 257 300 126 90 221 189 273 138 292 83 83 73 89 89 115 116 114 110 114 119 126 127 119 112 106 108 128 130 128 130 128 126 114 116 122 114 103 91 71
176 198 175 199 214 252 187 207 354 68 343 318 120 146 126 114 85 110 99 78 73 78 110 123 116 108 112 121 124 114 126 137 132 124 116 114 117 116 111 110 104 82 67 55
252 192 234 171 259 243 22 40 58 42 26 24 12 190 157 133 142 119 117 116 104 94 92 95 96 97 97 117 125 129 136 131 121 118 121 118 113 115 110 97 91 77 56 31
221 32 214 249 272 19 74 65 37 68 33 37 13 202 141 123 116 119 120 127 134 134 136 121 119 118 119 124 123 127 127 128 116 115 114 111 110 103 93 86 61 60 30 8
203 199 202 258 100 76 130 85 48 94 81 69 69 78 112 127 125 123 117 126 122 104 109 110 113 115 115 115 115 121 127 125 120 113 113 111 102 94 82 60 44 25 7 353